[[{"header":{"parameterUnit":"m.s-1","parameterCategory":1,"la1":30.2991,"la2":30.254,"lo1":-89.0895,"lo2":-89.0444,"dy":0.0017,"dx":0.0017,"nx":28,"ny":28,"refTime":"2023-08-10T03:00:00:Z","depth":0,"parameterNumber":2,"parameterNumberName":"U-component_of_WINDS"},"data":[0,0,0,0,0,0,0,0,0,0,0,0,0,0,0,0,0,0,0,0,0,0,0,0,0,0,0,0,0,0,0,0,0,0,0,0,0,0,0,0,0,0,0,0,0,0,0,0,0,0,0,0,0,0,0,0,0,0,0.5111,0.5113,0,0.5267,0.5268,0.527,0.5331,0.533,0.533,0.5329,0.5495,0.55,0.5505,0,0,0,0,0,0,0,0,0,0,0,0,0,0.4874,0.4878,0.5111,0.5113,0.5115,0.5266,0.5268,0.5271,0.5331,0.533,0.533,0.5329,0.5494,0.55,0.5505,0,0,0,0,0,0,0,0,0,0,0,0,0,0.4998,0.488,0.511,0.5163,0.5169,0.5266,0.5268,0.5271,0.5331,0.533,0.5329,0.5329,0.5492,0.5499,0.5506,0.5564,0,0,0.5528,0.5532,0,0,0,0,0,0,0,0,0.4991,0.5007,0.5153,0.5159,0.5166,0.5278,0.5246,0.537,0.5331,0.527,0.5329,0.5328,0.5424,0.5437,0.5468,0.5572,0.5579,0.5529,0.5533,0.5537,0.5539,0,0,0,0,0,0,0,0.4983,0.5001,0.5173,0.5155,0.5163,0.5181,0.5198,0.527,0.5349,0.5275,0.528,0.5297,0.5428,0.5461,0.5472,0.5582,0.5529,0.5535,0.554,0.5543,0.5746,0.5747,0,0,0,0,0,0,0.4964,0.4993,0.5168,0.5177,0.5075,0.5186,0.5205,0.5243,0.5348,0.5364,0.5297,0.5299,0.5449,0.5464,0.5478,0.5556,0.5536,0.5543,0.5547,0.5745,0.5746,0.5747,0,0,0,0,0,0,0.4959,0.4979,0.5161,0.5087,0.5111,0.5191,0.5233,0.5247,0.528,0.5365,0.538,0.5316,0.5449,0.5468,0.5543,0.5562,0.5547,0.5553,0.5744,0.5745,0.5747,0.571,0,0,0,0,0,0,0.4952,0.4977,0.4997,0.5086,0.5115,0.5221,0.5234,0.525,0.5291,0.5295,0.5387,0.5401,0.545,0.5532,0.555,0.5572,0.5559,0.5742,0.5745,0.5746,0.5709,0.571,0.571,0,0,0,0,0,0.4943,0.4981,0.4998,0.5019,0.5142,0.5221,0.5238,0.5291,0.5292,0.5316,0.5371,0.5398,0.5557,0.5539,0.556,0.5585,0.5742,0.5744,0.5746,0.5709,0.571,0.571,0,0,0,0,0,0,0.4894,0.4994,0.5014,0.5081,0.5142,0.5231,0.5262,0.5289,0.5353,0.5354,0.5419,0.544,0.551,0.5555,0.5533,0.5649,0.5652,0.5658,0.5616,0.5617,0.5617,0.5606,0.5565,0,0,0,0,0,0.4891,0.4945,0.503,0.5082,0.5111,0.5181,0.5218,0.5254,0.532,0.5347,0.5408,0.5474,0.5539,0.5581,0.5645,0.5716,0.5739,0.5744,0.5744,0.5744,0.5749,0.5794,0.5798,0.5755,0.5755,0.5755,0,0,0.4885,0.4947,0.4977,0.5074,0.5125,0.5182,0.5203,0.5262,0.5306,0.5357,0.5431,0.5478,0.5557,0.5631,0.5666,0.567,0.5766,0.5747,0.5746,0.5752,0.5797,0.5801,0.5804,0.5757,0.5757,0.5756,0,0,0.4905,0.4955,0.5005,0.5056,0.5134,0.518,0.5192,0.5278,0.5311,0.5386,0.5427,0.5482,0.5592,0.5647,0.5689,0.5732,0.5761,0.5752,0.5753,0.5796,0.5799,0.5802,0.582,0.5826,0.5757,0.5757,0.5757,0,0.4888,0.4974,0.5028,0.5085,0.5128,0.5176,0.5229,0.5277,0.5372,0.5402,0.5405,0.5545,0.5601,0.569,0.5701,0.5733,0.5751,0.5742,0.5794,0.5798,0.5802,0.582,0.5826,0.5755,0.5755,0.5755,0.5756,0,0.4952,0.501,0.5042,0.5131,0.5178,0.5233,0.5298,0.534,0.5372,0.542,0.5498,0.5567,0.5647,0.5671,0.5704,0.5766,0.5766,0.578,0.5785,0.5803,0.5821,0.5829,0.5753,0.5753,0.5754,0.5754,0,0,0.4942,0.5063,0.5073,0.5116,0.5206,0.5254,0.5314,0.5391,0.5426,0.5491,0.5544,0.5637,0.5652,0.57,0.574,0.5777,0.581,0.5787,0.579,0.5791,0.5887,0.5876,0.5883,0.5829,0.5831,0.5832,0.5881,0,0.4975,0.508,0.5132,0.5215,0.5273,0.532,0.5372,0.5435,0.5482,0.554,0.5593,0.5658,0.5671,0.5701,0.5739,0.5797,0.5831,0.5795,0.5883,0.5885,0.5862,0.5892,0.5881,0.5924,0.5888,0.5889,0.589,0,0.5026,0.509,0.5179,0.5265,0.5291,0.5336,0.5413,0.5467,0.5541,0.5573,0.5627,0.5666,0.5734,0.5733,0.5829,0.5804,0.5843,0.5878,0.5881,0.5892,0.5889,0.5906,0.5938,0.5945,0.5901,0.5901,0.59,0,0.5013,0.5121,0.5189,0.5224,0.5326,0.5358,0.5402,0.5475,0.5519,0.5587,0.5618,0.5693,0.5735,0.5794,0.5854,0.5847,0.5945,0.5949,0.5976,0.5975,0.5995,0.5993,0.6036,0.6018,0.6018,0.6018,0.6017,0,0.5044,0.5097,0.5185,0.5227,0.5289,0.535,0.5411,0.546,0.5525,0.558,0.5626,0.5677,0.5752,0.5814,0.5862,0.5936,0.5954,0.5984,0.5996,0.598,0.5977,0.6008,0.6007,0.6019,0.6019,0.6019,0.6018,0,0.504,0.51,0.5178,0.5269,0.5293,0.5335,0.5415,0.5459,0.5509,0.5578,0.5598,0.5677,0.5752,0.5817,0.5917,0.5949,0.6026,0.604,0.6,0.6007,0.6032,0.6029,0.6097,0.611,0.6081,0.6081,0.6081,0,0.5056,0.5098,0.5194,0.5233,0.5276,0.5339,0.5384,0.5448,0.5494,0.5583,0.5617,0.5695,0.5761,0.588,0.5948,0.6025,0.6043,0.6061,0.6055,0.6039,0.6046,0.6043,0.6049,0.6061,0.6061,0.6061,0.6061,0,0.5079,0.5108,0.517,0.5245,0.5298,0.5359,0.5423,0.5453,0.5529,0.5579,0.5656,0.5707,0.5809,0.5887,0.5972,0.6022,0.6056,0.6063,0.6074,0.6059,0.6035,0.605,0.6002,0.6061,0.6061,0.6061,0.6061,0.6061,0.5087,0.5128,0.5202,0.5272,0.5326,0.5385,0.5432,0.5488,0.5553,0.5639,0.5674,0.5753,0.583,0.5948,0.5997,0.6062,0.6068,0.6083,0.6087,0.609,0.6089,0.6023,0.6078,0.6078,0.6078,0.6078,0.6078,0,0.5114,0.5165,0.5228,0.5316,0.5371,0.5397,0.547,0.5515,0.5583,0.5651,0.5716,0.5806,0.5883,0.5958,0.604,0.6077,0.6095,0.6097,0.6096,0.6107,0.6078,0.6061,0.6081,0.6081,0.6081,0.6081,0.6081,0.6081,0.5135,0.5206,0.5244,0.5345,0.5396,0.5472,0.5512,0.5569,0.5623,0.5721,0.5785,0.5833,0.5906,0.5993,0.6067,0.6087,0.6116,0.6114,0.6139,0.611,0.6109,0.6108,0.6092,0.6119,0.6119,0.6163,0.6164,0.6164]},{"header":{"parameterUnit":"m.s-1","parameterCategory":1,"la1":30.2991,"la2":30.254,"lo1":-89.0895,"lo2":-89.0444,"dy":0.0017,"dx":0.0017,"nx":28,"ny":28,"refTime":"2023-08-10T03:00:00:Z","depth":0,"parameterNumber":3,"parameterNumberName":"V-component_of_WINDS"},"data":[0,0,0,0,0,0,0,0,0,0,0,0,0,0,0,0,0,0,0,0,0,0,0,0,0,0,0,0,0,0,0,0,0,0,0,0,0,0,0,0,0,0,0,0,0,0,0,0,0,0,0,0,0,0,0,0,0,0,5.6871,5.6873,0,5.6995,5.6996,5.6998,5.7022,5.7021,5.702,5.7019,5.7137,5.7141,5.7145,0,0,0,0,0,0,0,0,0,0,0,0,0,5.6648,5.6652,5.6871,5.6873,5.6874,5.6995,5.6996,5.6998,5.7022,5.7021,5.702,5.7019,5.7136,5.714,5.7145,0,0,0,0,0,0,0,0,0,0,0,0,0,5.6756,5.6654,5.6871,5.6901,5.6905,5.6994,5.6997,5.6999,5.7022,5.7021,5.7019,5.7018,5.7134,5.714,5.7146,5.7212,0,0,5.7164,5.7167,0,0,0,0,0,0,0,0,5.675,5.6764,5.6895,5.6899,5.6904,5.6992,5.6961,5.707,5.7023,5.6977,5.7019,5.7017,5.7089,5.7099,5.7125,5.7217,5.7222,5.7165,5.7169,5.7171,5.7173,0,0,0,0,0,0,0,5.6742,5.6759,5.692,5.6897,5.6902,5.6906,5.692,5.6982,5.7039,5.6981,5.6983,5.6998,5.7091,5.7119,5.7128,5.7224,5.7165,5.717,5.7174,5.7176,5.7377,5.7379,0,0,0,0,0,0,5.673,5.6752,5.6916,5.6924,5.6822,5.6911,5.6926,5.6965,5.7039,5.7049,5.6999,5.6999,5.7109,5.7121,5.7132,5.7216,5.7171,5.7177,5.718,5.7376,5.7378,5.738,0,0,0,0,0,0,5.6726,5.6745,5.6911,5.6839,5.686,5.6917,5.6959,5.6968,5.6996,5.7053,5.7062,5.7018,5.7109,5.7124,5.7193,5.722,5.7179,5.7185,5.7374,5.7376,5.7379,5.7382,0,0,0,0,0,0,5.6719,5.6743,5.677,5.6839,5.6864,5.6972,5.6961,5.6971,5.7007,5.7008,5.7072,5.7082,5.7109,5.7184,5.7199,5.7227,5.719,5.7371,5.7375,5.7378,5.7379,5.7384,5.7388,0,0,0,0,0,5.6711,5.6764,5.6771,5.6791,5.69,5.6973,5.6987,5.702,5.7009,5.7036,5.7073,5.708,5.7214,5.719,5.7208,5.7238,5.737,5.7374,5.7378,5.7377,5.7383,5.7388,0,0,0,0,0,0,5.6693,5.6773,5.6783,5.686,5.691,5.6977,5.7012,5.7024,5.7076,5.7074,5.711,5.7124,5.7192,5.7221,5.7194,5.7307,5.7291,5.7299,5.7285,5.7291,5.7295,5.7287,5.7195,0,0,0,0,0,5.6698,5.6754,5.682,5.6881,5.6907,5.6955,5.6988,5.701,5.7062,5.7082,5.7124,5.7172,5.7225,5.7259,5.7311,5.7383,5.7398,5.7413,5.7417,5.7421,5.7427,5.7469,5.7476,5.7392,5.7392,5.7392,0,0,5.6709,5.676,5.6792,5.6879,5.6921,5.6976,5.6973,5.703,5.7071,5.709,5.7159,5.7191,5.7247,5.7319,5.7352,5.7346,5.7453,5.7426,5.7428,5.7432,5.7473,5.7481,5.7488,5.7395,5.7395,5.7394,0,0,5.6758,5.6801,5.6859,5.6901,5.6965,5.6998,5.7011,5.7078,5.7101,5.7171,5.7187,5.7234,5.7325,5.7365,5.7397,5.7463,5.7471,5.7478,5.7501,5.7541,5.7548,5.7554,5.7578,5.7587,5.7484,5.7484,5.7484,0,5.6762,5.6849,5.6886,5.6945,5.6982,5.7005,5.7063,5.7101,5.7177,5.7202,5.7194,5.731,5.7349,5.7431,5.7448,5.7472,5.7488,5.7471,5.7544,5.7551,5.7557,5.7581,5.759,5.7485,5.7485,5.7484,5.7484,0,5.6852,5.6912,5.695,5.7027,5.7069,5.7126,5.717,5.7207,5.7225,5.7257,5.7329,5.7377,5.744,5.7461,5.7477,5.7545,5.754,5.7538,5.7523,5.7565,5.7588,5.7597,5.7486,5.7485,5.7485,5.7485,0,0,5.6892,5.6991,5.7005,5.7041,5.7114,5.716,5.7217,5.7283,5.7315,5.7366,5.7415,5.7493,5.7492,5.7529,5.7549,5.7585,5.7635,5.7578,5.758,5.7589,5.7715,5.7717,5.7727,5.7641,5.7643,5.7644,5.7711,0,5.695,5.7059,5.7094,5.7183,5.7239,5.7262,5.7313,5.7362,5.7394,5.7444,5.7477,5.7533,5.7527,5.7549,5.7585,5.7622,5.7661,5.7617,5.7686,5.7688,5.7673,5.7739,5.7741,5.7802,5.772,5.7721,5.7722,0,5.7033,5.7091,5.7187,5.7255,5.728,5.7325,5.7388,5.7436,5.7492,5.7512,5.7554,5.7573,5.7633,5.7614,5.7697,5.7666,5.7696,5.7718,5.7721,5.773,5.7709,5.7751,5.7822,5.7831,5.7737,5.7735,5.7734,0,5.7055,5.7156,5.7227,5.7257,5.7338,5.7369,5.7404,5.7458,5.7496,5.755,5.7575,5.7633,5.7666,5.771,5.7743,5.7727,5.7824,5.7807,5.7842,5.7841,5.7862,5.786,5.794,5.7879,5.7879,5.7878,5.7878,0,5.7117,5.7175,5.7238,5.7282,5.7348,5.7387,5.745,5.7485,5.7534,5.7583,5.7604,5.765,5.7691,5.7741,5.7767,5.7833,5.7846,5.7864,5.787,5.7863,5.7861,5.7884,5.7881,5.7881,5.788,5.788,5.7879,0,5.7153,5.7198,5.7277,5.7348,5.7367,5.7413,5.7472,5.7515,5.7548,5.7611,5.7627,5.7678,5.7739,5.7777,5.7852,5.787,5.7942,5.7946,5.7925,5.7928,5.7961,5.7958,5.806,5.8076,5.8002,5.8003,5.8003,0,5.7191,5.7237,5.7314,5.7351,5.7387,5.7445,5.7484,5.7524,5.7564,5.7632,5.7666,5.7729,5.7782,5.7877,5.7919,5.7978,5.7984,5.8016,5.7993,5.7985,5.7987,5.7984,5.799,5.802,5.802,5.8021,5.8021,0,5.7254,5.7274,5.7332,5.7398,5.7446,5.7499,5.7551,5.7579,5.7627,5.7671,5.7735,5.7776,5.7856,5.7918,5.798,5.8013,5.8025,5.8028,5.804,5.8033,5.802,5.803,5.7937,5.8026,5.8025,5.8025,5.8025,5.8025,5.7293,5.7336,5.7398,5.7462,5.7507,5.7556,5.76,5.764,5.7696,5.7767,5.7785,5.7853,5.7908,5.7994,5.8028,5.808,5.8075,5.8091,5.8095,5.8099,5.8101,5.8011,5.8091,5.8091,5.8091,5.809,5.809,0,5.7358,5.74,5.7459,5.7534,5.7584,5.7595,5.7653,5.7694,5.7755,5.7806,5.7859,5.7933,5.7994,5.8042,5.8104,5.8136,5.8143,5.8151,5.815,5.8158,5.8101,5.8086,5.8145,5.8145,5.8145,5.8145,5.8145,5.8145,5.7399,5.7473,5.7501,5.7596,5.7637,5.7706,5.7739,5.7784,5.7826,5.791,5.7962,5.7994,5.8044,5.811,5.8166,5.8178,5.82,5.8208,5.8221,5.8167,5.8161,5.8156,5.8142,5.8212,5.8212,5.8274,5.8275,5.8275]}]]